Regional Weather Roundup
Issued by NWS

Home | Current Version | Previous Version | Graphics & Text | Print | Product List | Glossary Off
Versions: 1 2 3 4 5 6 7 8 9 10 11 12 13 14 15 16 17 18 19 20 21 22 23 24 25 26 27 28 29 30 31 32 33 34 35 36 37 38 39 40 41 42 43 44 45 46 47 48 49 50

648
ASUS43 KMPX 290701
RWRMN
WEATHER ROUNDUP FOR MINNESOTA
NATIONAL WEATHER SERVICE TWIN CITIES/CHANHASSEN MN
200 AM CDT WED MAR 29 2017


NOTE: "FAIR" INDICATES FEW OR NO CLOUDS BELOW 12,000 FEET WITH NO
SIGNIFICANT WEATHER AND/OR OBSTRUCTIONS TO VISIBILITY. N/A MEANS
CURRENT SKY AND/OR WEATHER CONDITIONS ARE NOT AVAILABLE.

MNZ060>063-068>070-290800-
   Twin Cities Metro

CITY           SKY/WX    TMP DP  RH WIND       PRES   REMARKS
TWIN CITIES    CLOUDY    44  34  67 E3        30.18S
ST PAUL        PTCLDY    40  34  79 CALM      30.19S
CRYSTAL        CLOUDY    39  27  62 CALM      30.17S
BLAINE         CLOUDY    37  28  70 CALM      30.18S
LAKEVILLE      CLOUDY    36  34  93 CALM      30.18S
EDEN PRAIRIE   CLOUDY    46  31  55 CALM      30.17S
SOUTH ST PAUL  CLOUDY    40  32  73 CALM      30.18S
LAKE ELMO      FAIR      34  32  93 NE3       30.19F
$$
MNZ001>005-007-008-013>017-022>024-027-028-290800-
   Northwest Minnesota

CITY           SKY/WX    TMP DP  RH WIND       PRES   REMARKS
BEMIDJI        CLEAR     35  27  70 E3        30.21S
HALLOCK        PTCLDY    37  30  75 E10       30.20S
ROSEAU         CLEAR     37  28  70 E8        30.23S
WARROAD        CLEAR     32  27  80 E7        30.25S WCI  26
THIEF RVR FALL CLEAR     38  29  70 E8        30.22S
CROOKSTON      CLEAR     39  30  70 E8        30.21F
FOSSTON        CLEAR     34  28  80 CALM      30.21S
DETROIT LAKES  PTCLDY    43  30  61 NE3       30.19F
MOORHEAD       PTCLDY    37  34  87 E8        30.18F
PARK RAPIDS    CLOUDY    35  25  66 CALM      30.19S
MAHNOMEN       FAIR      38  29  71 E3        30.19S
$$
MNZ006-009>011-018-025>026-290800-
   North Central Minnesota

CITY           SKY/WX    TMP DP  RH WIND       PRES   REMARKS
BAUDETTE       PTCLDY    33  24  69 E5        30.25S WCI  29
FLAG ISLAND    CLOUDY    36  21  55 E3        30.25S
INTL FALLS     CLEAR     34  23  64 E5        30.26S WCI  30
WASKISH        CLEAR     32  28  86 E6        30.23S WCI  26
BIG FORK       PTCLDY    37  25  60 E3        30.24R
LONGVILLE      CLEAR     30  27  86 CALM      30.21R
GRAND RAPIDS   CLEAR     38  27  64 SE6       30.25R
CRANE LAKE     CLEAR     25  25 100 CALM      30.30R
ORR            CLEAR     36  23  60 CALM      30.24R
COOK           CLEAR     32  25  74 CALM      30.26S
WALKER         FAIR      32  25  73 CALM      30.21R
$$
MNZ012-019>021-037-290800-
   Northeast Minnesota

CITY           SKY/WX    TMP DP  RH WIND       PRES   REMARKS
DULUTH         CLEAR     36  26  67 E13       30.26S
ELY            CLEAR     28  25  86 NE3       30.27F
HIBBING        CLEAR     30  25  81 E5        30.25S WCI  25
EVELETH        CLEAR     32  23  69 NE5       30.27S WCI  28
DULUTH HARBOR  CLEAR     37  34  87 NE16      30.31R
TWO HARBORS    CLEAR     39  27  60 NE12G20   30.28S
GRAND MARAIS     N/A     37  23  56 NE9       30.34R
G MARAIS ARPRT CLEAR     27  18  69 NE7       30.30S WCI  19
$$
MNZ029>031-032-039>041-046>048-054>057-064-290800-
   West Central Minnesota

CITY           SKY/WX    TMP DP  RH WIND       PRES   REMARKS
FERGUS FALLS   PTCLDY    45  34  65 NE8       30.19F
WHEATON          N/A     36  36 100 CALM      30.19S FOG
MORRIS         CLOUDY    39  36  87 E6        30.16S
ALEXANDRIA     CLEAR     39  31  72 CALM      30.17F
ELBOW LAKE     FAIR      43  37  78 CALM      30.16F HAZE
WADENA         PTCLDY    41  27  56 E5        30.18S
GLENWOOD       CLEAR     43  34  70 N5        30.17F
APPLETON       CLOUDY    39  36  87 CALM      30.16S
BENSON         CLOUDY    39  32  75 E3        30.18S
ORTONVILLE     CLOUDY    43  37  81 NE9       30.16S
MADISON        CLOUDY    43  37  81 CALM      30.17R
WILLMAR        FAIR      39  32  75 SE3       30.18S
$$
MNZ033>034-036-042>043-049>051-058-059-290800-
   Central Minnesota

CITY           SKY/WX    TMP DP  RH WIND       PRES   REMARKS
ST CLOUD       CLEAR     33  29  85 CALM      30.17F
SAUK CENTRE    FAIR      33  30  87 CALM      30.18F
PAYNESVILLE    CLOUDY    34  31  90 CALM      30.18S
AITKIN         CLEAR     37  27  65 NE6       30.20S
PINE RIVER     CLEAR     30  27  86 CALM      30.23S
BRAINERD       CLEAR     30  26  85 CALM      30.20S
STAPLES        PTCLDY    37  27  65 CALM      30.19S
LONG PRAIRIE   FAIR      34  32  93 CALM      30.18F
LITTLE FALLS   CLEAR     32  30  93 CALM      30.18F
LITCHFIELD     PTCLDY    45  34  65 CALM      30.18S
BUFFALO        MOCLDY    36  29  75 CALM      30.19S
MAPLE LAKE     CLOUDY    34  31  90 CALM      30.19S
HUTCHINSON     PTCLDY    39  32  76 CALM      30.19S
$$
MNZ037-044-045-052-053-290800-
   East Central Minnesota

CITY           SKY/WX    TMP DP  RH WIND       PRES   REMARKS
PRINCETON      CLEAR     34  28  80 N3        30.19F
MORA           CLEAR     36  28  75 CALM      30.22S
CAMBRIDGE      CLEAR     34  25  69 N3        30.18S
RUSH CITY      CLEAR     38  26  62 NE5       30.21S
MOOSE LAKE     CLEAR     32  32 100 NE6       30.23R WCI  26
CLOQUET        CLEAR     36  27  69 E7        30.25S
MCGREGOR       CLEAR     32  30  93 E3        30.24R
$$
MNZ071>073-080-081-089-090-097-098-290800-
   Southwest Minnesota

CITY           SKY/WX    TMP DP  RH WIND       PRES   REMARKS
MONTEVIDEO     CLOUDY    39  30  70 CALM      30.17R
GRANITE FALLS  CLOUDY    46  32  57 E6        30.18R
CANBY          CLOUDY    40  36  86 CALM      30.18R
MARSHALL       CLOUDY    39  34  82 W3        30.17R
REDWOOD FALLS  CLOUDY    46  32  58 E3        30.17R
OLIVIA         CLOUDY    41  32  70 CALM      30.17R
PIPESTONE      PTCLDY    39  30  70 CALM      30.14S
WINDOM         CLOUDY    41  36  81 E6        30.14F
WORTHINGTON    CLOUDY    38  35  89 NE3       30.16R
JACKSON        CLOUDY    39  36  87 E8        30.15F
TRACY          CLOUDY    45  37  73 SE3       30.16S
SLAYTON        CLOUDY    36  33  88 NE5       30.15F
$$
MNZ065>067-074>077-082>085-091>093-290800-
   South Central Minnesota

CITY           SKY/WX    TMP DP  RH WIND       PRES   REMARKS
MANKATO        CLOUDY    45  35  68 E3        30.18R
NEW ULM        PTCLDY    45  34  65 CALM      30.17S
ST JAMES       PTCLDY    43  36  75 CALM      30.17S
FAIRMONT       CLOUDY    41  37  86 E5        30.16S
GLENCOE        CLOUDY    39  34  84 CALM      30.17S
FARIBAULT      PTCLDY    36  36 100 CALM      30.18S
OWATONNA       CLOUDY    39  34  81 E5        30.18S
WASECA         CLOUDY    41  34  75 E3        30.19R
ALBERT LEA     MOCLDY    41  36  81 CALM      30.17F
$$
MNZ078>079-086>088-094>096-290800-
   Southeast Minnesota

CITY           SKY/WX    TMP DP  RH WIND       PRES   REMARKS
ROCHESTER      CLOUDY    44  34  67 E9        30.18S
RED WING       CLOUDY    36  30  80 CALM      30.18S
STANTON        CLOUDY    36  33  88 SW3       30.17F
DODGE CENTER   PTCLDY    39  34  81 E6        30.18S
WINONA         CLEAR     37  37 100 CALM      30.21S
AUSTIN         PTCLDY    39  36  87 CALM      30.18S
PRESTON        PTCLDY    43  35  72 E6        30.19S
$$
ABBREVIATIONS USED IN REMARKS
   TC - TEMPERATURES IN CELSIUS
  WCI - WIND CHILL INDEX
   HX - HEAT INDEX
  VSB - VISIBILITY
$$




USA.gov is the U.S. government's official web portal to all federal, state and local government web resources and services.